Temperature
14 15 15 15 15 15 15 15 15 15 15 15 15 15 14 14 14 13 12 14 13 13 14 14 14 14 14 14 14 14 15 15 15 15 15 15 15 15
14 14 15 15 15 15 15 15 15 15 15 15 15 15 15 14 14 13 13 13 13 13 13 13 13 14 14 14 14 14 14 14 14 14 14 14 14 14
14 14 14 15 15 15 15 15 15 15 15 15 14 15 15 14 14 14 13 13 13 13 13 13 13 13 14 14 14 14 14 14 14 14 14 14 14 14
13 14 14 14 14 15 15 15 15 15 15 14 14 15 14 14 14 14 13 13 12 13 13 13 13 13 14 14 14 14 14 14 14 14 14 13 13 13
13 13 13 14 14 15 15 15 15 15 14 14 14 15 14 14 14 14 13 13 12 13 13 12 12 13 13 14 14 14 14 14 14 13 13 13 13 13
13 13 13 14 14 14 15 15 15 14 14 14 14 14 15 15 14 14 14 14 13 12 13 12 12 12 13 13 14 14 14 13 13 13 13 13 13 13
14 14 14 14 14 14 14 15 14 14 14 14 14 14 14 15 15 15 14 13 13 13 12 12 12 11 12 13 13 13 13 13 13 12 12 13 13 13
14 14 14 14 14 15 15 15 15 14 14 14 14 14 14 14 15 15 14 13 13 14 13 12 12 11 11 10 12 13 12 12 12 12 11 12 12 12
14 14 14 14 14 14 15 15 15 15 14 14 14 14 14 14 14 14 14 14 13 13 13 12 12 11 11 12 12 12 12 12 11 11 11 11 11 11
14 13 14 14 14 14 14 14 14 15 15 14 14 13 13 13 14 14 14 13 13 13 13 12 11 12 11 12 12 12 12 11 11 10 10 10 10 10
13 13 14 14 14 14 14 14 14 14 14 14 14 13 13 13 13 13 13 13 12 13 14 12 11 12 11 12 12 12 11 11 10 10 10 10 10 10
13 13 14 14 14 14 14 14 14 14 14 14 14 14 13 12 12 12 13 13 13 12 14 13 12 12 11 11 11 12 12 11 10 10 10 10 10 9
13 13 13 14 14 13 13 13 13 13 13 13 13 13 13 12 12 12 12 13 12 13 13 13 13 12 11 11 12 12 11 11 10 10 10 10 10 9
12 13 13 13 13 13 13 13 13 13 13 13 13 12 12 12 12 12 12 12 12 12 12 13 13 13 12 11 11 12 11 11 10 9 9 10 10 10
12 12 13 13 13 12 12 12 12 12 12 12 12 12 12 12 12 12 12 11 11 12 12 12 12 12 12 11 11 11 12 11 11 10 9 9 10 10
12 12 12 12 12 12 12 12 11 11 11 11 11 11 11 11 11 11 11 11 11 11 11 11 11 11 11 11 11 11 11 11 11 11 10 10 9 9
12 12 11 11 11 11 11 11 11 11 11 11 11 11 11 11 11 11 11 11 11 11 11 11 11 11 11 10 10 10 10 10 10 10 10 10 10 10
11 11 11 11 11 11 11 11 11 11 11 11 11 11 10 10 10 10 10 11 11 11 11 11 11 10 10 10 11 10 10 10 10 10 9 9 9 9
11 11 11 11 10 10 10 10 10 10 10 10 10 10 10 10 10 10 10 10 10 10 10 10 10 10 10 9 10 11 10 10 10 10 10 9 9 9
10 10 10 10 10 10 10 10 10 10 10 10 10 10 10 10 10 10 10 10 10 10 10 10 10 10 10 10 10 10 10 10 10 10 10 9 9 9
10 10 10 9 9 9 9 9 9 9 9 9 9 9 10 10 10 9 9 9 9 9 9 9 9 9 9 9 9 9 10 9 9 9 9 9 8 9
9 9 9 9 9 9 9 9 9 9 9 9 9 9 9 9 9 9 9 9 9 9 9 9 9 8 8 8 8 9 9 9 9 9 9 9 8 8
9 9 9 9 9 9 9 9 9 9 9 9 9 9 9 9 9 9 9 9 9 9 9 8 8 8 8 8 8 8 8 8 8 9 8 8 8 8
Wind_Speed
10 12 10 9 8 9 8 8 7 6 6 8 6 8 8 6 6 5 3 7 4 4 6 8 10 11 11 12 12 12 12 11 12 13 14 14 13 13
5 9 9 8 8 9 9 9 9 8 6 5 6 8 9 8 7 5 3 7 4 4 5 6 7 9 9 10 10 10 10 10 9 10 12 14 15 15
4 6 8 8 8 8 9 9 9 9 8 5 6 7 11 9 8 7 6 6 6 5 4 4 5 7 7 8 8 8 9 9 8 9 11 13 14 15
4 6 9 8 10 9 9 10 10 10 9 9 6 7 11 10 9 8 7 5 5 7 4 3 3 5 6 6 7 7 7 8 9 11 12 12 13 14
8 9 11 11 12 10 11 11 10 9 9 8 7 6 7 8 10 8 8 7 6 8 6 5 4 4 4 5 5 6 7 9 12 13 14 13 13 13
12 13 13 13 13 12 11 13 11 10 10 9 8 7 7 8 9 9 8 8 7 7 6 4 5 5 5 4 4 5 7 10 12 14 14 14 14 13
13 14 14 13 12 10 9 11 11 10 10 10 10 9 9 8 10 9 8 8 8 7 7 7 8 8 8 8 6 5 6 8 11 12 12 13 14 13
13 13 12 12 14 14 14 12 10 12 12 12 11 12 13 13 10 9 9 8 6 7 8 7 6 6 6 6 9 7 6 7 9 10 10 12 13 13
11 11 10 10 11 11 14 16 14 14 13 13 13 15 13 13 13 12 11 10 7 7 8 7 7 7 7 7 12 8 7 6 7 7 8 9 10 10
11 11 11 11 10 11 10 11 12 14 15 15 13 11 8 8 12 11 10 9 7 6 8 6 7 7 6 8 14 11 9 8 7 7 7 7 8 8
9 8 9 9 8 8 9 8 8 8 10 11 6 0 4 8 9 8 8 9 8 8 9 6 6 6 6 7 12 14 11 11 10 9 8 8 8 8
6 6 5 6 6 9 8 7 7 6 5 7 8 7 7 11 14 12 9 10 9 7 9 8 7 7 5 6 8 12 13 14 13 12 11 11 11 10
5 4 4 6 5 6 6 4 2 2 4 5 6 7 7 8 10 11 9 9 9 6 8 10 7 8 6 5 7 9 11 11 13 14 15 15 14 12
4 3 4 7 6 6 4 2 3 2 3 4 4 5 6 6 6 8 9 9 8 5 8 11 6 7 8 7 6 8 9 10 10 11 12 16 16 15
2 6 7 8 8 6 4 4 4 3 3 4 4 5 5 6 6 5 7 7 8 5 6 11 7 7 8 7 6 7 8 8 10 9 10 10 11 11
6 8 8 6 5 5 7 6 5 4 3 3 3 3 3 5 5 5 5 5 5 6 7 10 10 8 8 8 6 8 8 7 9 10 10 9 11 12
8 7 7 7 6 5 5 5 5 5 5 4 4 4 4 4 5 6 6 6 6 6 7 6 8 8 8 8 8 8 9 8 7 9 9 9 10 11
5 5 4 4 4 4 5 5 5 5 5 5 5 5 5 5 5 5 5 7 8 8 8 8 7 6 6 8 10 10 9 9 8 9 9 9 9 10
3 3 2 2 2 3 3 3 4 4 4 4 4 5 5 5 5 6 7 7 8 9 8 7 8 9 12 13 12 15 10 9 9 9 9 9 9 8
1 1 1 2 2 3 3 4 4 4 4 5 5 5 6 6 6 6 7 8 8 8 8 8 10 12 13 10 5 6 13 9 8 9 8 8 8 5
1 2 2 2 3 3 4 4 5 5 5 5 5 6 6 6 7 7 7 8 9 8 9 10 11 11 4 2 3 3 4 11 9 4 6 7 7 7
2 2 2 3 4 4 4 5 5 5 6 6 6 6 6 6 7 8 7 7 7 8 8 5 6 8 7 8 7 5 5 4 6 7 6 5 4 4
1 2 2 3 3 4 4 5 6 6 6 6 6 6 6 6 6 6 6 6 6 5 4 3 4 4 5 5 5 4 4 4 4 4 6 9 10 7
Wind_Direction
222 223 221 222 226 235 240 239 240 238 220 199 185 195 193 188 166 208 164 106 78 74 70 60 52 44 38 37 37 35 34 36 43 50 54 56 56 58
229 234 230 229 226 226 230 236 241 244 243 193 181 179 184 186 186 211 136 133 121 97 89 73 59 49 42 37 35 31 29 32 43 60 65 64 62 62
229 244 244 236 227 222 223 228 235 238 237 215 172 177 181 191 177 201 188 199 151 128 109 86 67 57 50 44 38 33 35 40 49 64 75 73 70 67
235 256 256 243 235 230 224 227 229 233 229 215 181 197 195 193 187 193 198 206 190 135 133 109 83 70 64 54 46 44 52 59 65 71 77 79 79 76
219 238 251 245 236 231 228 231 230 229 229 216 185 180 198 197 194 197 204 200 203 165 171 168 128 100 89 71 60 61 72 81 84 81 77 75 77 77
218 228 238 241 241 239 233 233 228 222 220 216 190 179 182 196 197 198 201 198 206 196 191 191 158 148 136 118 93 84 91 96 95 91 84 78 75 78
224 229 235 238 248 252 246 238 224 218 215 215 208 195 189 181 199 199 202 195 201 200 201 198 198 197 171 162 148 118 106 105 103 100 94 88 82 79
235 235 234 231 235 236 243 249 241 225 219 219 218 217 211 203 192 189 194 192 201 193 212 207 206 210 201 182 137 138 132 118 113 110 106 101 95 89
246 243 235 231 224 227 224 224 232 240 246 241 232 232 227 204 188 189 197 201 211 167 193 201 193 210 194 150 145 171 167 147 132 124 118 114 111 108
244 243 238 229 217 217 217 218 223 222 226 236 245 249 240 198 191 197 202 208 205 164 193 212 192 204 189 178 164 183 189 179 168 159 149 142 135 131
242 238 234 226 196 208 218 221 231 232 224 230 261 295 143 173 186 194 189 189 200 197 196 217 195 194 193 195 174 181 195 194 191 190 184 177 172 176
231 227 221 235 188 200 220 221 229 226 215 211 210 185 187 188 188 201 195 204 212 199 190 201 188 186 203 199 186 185 195 198 201 206 203 198 201 219
221 215 195 174 185 199 242 236 215 185 193 210 201 193 195 195 196 215 216 218 223 215 179 190 190 197 211 177 188 193 195 192 197 207 211 209 215 238
225 199 155 151 169 186 210 117 113 160 171 178 181 184 189 191 195 208 221 216 230 235 177 185 192 200 204 196 186 185 196 202 203 205 207 199 211 231
142 92 119 147 162 175 165 161 179 195 188 191 198 197 194 193 188 193 210 220 225 218 194 199 203 205 215 216 195 175 185 201 207 212 214 206 208 209
145 128 129 140 159 135 161 182 196 192 203 208 204 195 182 184 182 177 185 189 203 208 210 210 217 213 219 222 206 190 189 186 193 208 214 220 225 224
161 164 166 169 175 181 188 193 195 190 200 205 202 196 198 199 194 184 185 186 198 204 201 207 217 218 231 228 216 206 195 191 182 191 204 217 223 226
182 183 183 191 196 196 196 196 202 207 210 210 213 212 213 217 215 198 198 205 214 218 207 191 187 194 214 236 239 225 209 202 195 188 200 217 228 224
214 188 184 202 221 230 234 235 225 214 216 222 230 234 232 229 225 218 212 219 227 228 215 187 186 197 207 219 215 215 222 208 199 198 210 220 236 241
223 191 195 214 229 238 236 237 241 236 235 238 238 241 242 239 236 233 229 229 233 233 220 196 197 207 216 219 206 195 220 220 201 207 210 219 235 253
204 235 248 250 250 252 252 251 248 247 246 247 248 248 249 246 243 240 239 238 240 240 232 221 214 202 198 159 177 177 191 224 241 231 219 213 226 234
224 241 251 259 263 263 262 262 262 258 255 254 257 256 253 252 253 252 246 241 239 240 244 223 172 176 189 202 202 182 167 175 221 251 279 270 240 246
275 284 290 286 280 277 273 267 266 269 266 264 264 261 255 251 250 252 250 246 241 229 209 174 160 173 189 198 188 166 164 170 175 187 226 233 245 262
Height
1528 1532 1536 1539 1541 1542 1544 1546 1548 1548 1549 1550 1549 1550 1550 1551 1550 1551 1552 1550 1550 1549 1548 1547 1547 1546 1545 1545 1544 1544 1544 1543 1543 1542 1540 1539 1538 1537
1524 1528 1532 1534 1536 1538 1540 1541 1543 1544 1546 1546 1546 1546 1547 1548 1548 1549 1549 1549 1548 1548 1548 1547 1546 1545 1545 1544 1544 1544 1543 1543 1542 1541 1540 1539 1538 1536
1520 1524 1528 1531 1533 1534 1535 1537 1538 1540 1541 1543 1543 1543 1544 1546 1546 1547 1547 1547 1547 1547 1547 1546 1545 1544 1544 1543 1543 1543 1543 1542 1542 1541 1540 1539 1538 1537
1517 1521 1524 1527 1529 1530 1531 1533 1534 1535 1537 1539 1539 1540 1542 1543 1544 1544 1545 1545 1546 1545 1545 1545 1544 1543 1542 1542 1542 1541 1541 1541 1541 1540 1540 1539 1538 1537
1515 1518 1521 1523 1525 1526 1526 1528 1529 1530 1531 1533 1534 1535 1537 1539 1540 1542 1542 1543 1543 1543 1543 1543 1542 1541 1541 1540 1540 1540 1540 1539 1539 1539 1539 1538 1537 1536
1513 1515 1517 1519 1520 1521 1522 1523 1524 1525 1526 1528 1529 1530 1532 1534 1536 1538 1539 1540 1541 1541 1540 1540 1540 1539 1539 1538 1538 1538 1538 1537 1537 1537 1537 1537 1536 1536
1510 1511 1512 1514 1515 1516 1517 1517 1518 1519 1521 1522 1524 1526 1527 1529 1531 1533 1535 1537 1538 1538 1538 1538 1538 1537 1536 1535 1535 1535 1535 1535 1535 1535 1535 1534 1534 1535
1506 1507 1507 1508 1509 1510 1510 1511 1512 1514 1516 1517 1519 1520 1521 1523 1526 1529 1531 1533 1534 1535 1535 1536 1535 1535 1535 1535 1532 1533 1533 1533 1533 1533 1533 1532 1533 1533
1501 1502 1502 1502 1503 1504 1504 1505 1506 1508 1510 1512 1513 1515 1517 1518 1520 1523 1526 1529 1531 1531 1532 1533 1532 1532 1531 1530 1530 1530 1530 1530 1530 1531 1531 1531 1531 1532
1496 1497 1497 1497 1498 1499 1500 1500 1502 1503 1504 1506 1508 1510 1512 1513 1515 1519 1522 1525 1528 1527 1528 1530 1529 1529 1528 1527 1527 1527 1528 1528 1528 1529 1529 1530 1530 1531
1492 1492 1492 1493 1494 1494 1496 1497 1498 1499 1500 1501 1502 1503 1505 1507 1510 1513 1517 1520 1522 1522 1524 1526 1526 1525 1525 1524 1523 1524 1524 1525 1526 1526 1527 1528 1529 1530
1488 1488 1488 1489 1490 1491 1492 1494 1494 1495 1496 1497 1498 1499 1500 1502 1505 1508 1511 1515 1518 1519 1519 1521 1521 1522 1522 1521 1520 1520 1521 1522 1523 1524 1525 1526 1527 1528
1485 1485 1485 1485 1487 1488 1490 1491 1492 1492 1493 1494 1494 1495 1497 1498 1500 1503 1507 1509 1513 1515 1515 1516 1517 1518 1520 1519 1517 1517 1518 1518 1519 1521 1522 1523 1524 1526
1482 1481 1481 1482 1484 1485 1487 1488 1489 1489 1490 1491 1491 1492 1493 1495 1497 1499 1502 1504 1506 1509 1509 1511 1512 1514 1515 1516 1515 1514 1514 1515 1517 1518 1519 1520 1521 1522
1478 1478 1479 1480 1481 1483 1484 1485 1486 1487 1487 1488 1488 1489 1490 1492 1493 1495 1497 1499 1501 1502 1504 1506 1508 1509 1511 1512 1512 1510 1511 1511 1513 1514 1515 1516 1517 1518
1476 1476 1477 1478 1479 1481 1482 1483 1483 1484 1484 1485 1485 1486 1487 1488 1489 1490 1492 1493 1495 1496 1498 1500 1502 1504 1505 1507 1508 1507 1507 1508 1508 1510 1511 1512 1513 1514
1474 1475 1476 1477 1478 1479 1479 1480 1480 1481 1481 1482 1482 1483 1483 1484 1485 1486 1487 1488 1489 1490 1492 1494 1496 1498 1499 1501 1503 1503 1504 1504 1505 1506 1507 1508 1508 1509
1472 1473 1474 1475 1476 1477 1477 1477 1477 1478 1478 1478 1479 1479 1480 1480 1481 1482 1482 1483 1484 1485 1486 1487 1489 1491 1493 1494 1496 1498 1499 1500 1501 1502 1503 1504 1505 1505
1471 1472 1472 1473 1473 1474 1474 1475 1475 1475 1475 1475 1475 1476 1476 1476 1476 1477 1477 1477 1478 1479 1479 1480 1481 1483 1484 1486 1488 1491 1493 1495 1496 1497 1498 1499 1500 1502
1469 1470 1470 1471 1471 1471 1472 1471 1471 1471 1471 1471 1471 1471 1471 1471 1471 1472 1472 1472 1472 1472 1473 1472 1473 1475 1476 1478 1481 1482 1486 1488 1490 1491 1493 1494 1495 1495
1468 1468 1469 1469 1469 1469 1469 1469 1469 1468 1468 1468 1468 1467 1467 1467 1466 1466 1466 1466 1466 1465 1465 1465 1465 1468 1469 1471 1473 1475 1478 1481 1483 1485 1487 1488 1489 1489
1467 1467 1467 1467 1467 1466 1466 1466 1466 1465 1465 1464 1464 1463 1463 1462 1461 1461 1461 1460 1459 1459 1458 1458 1458 1459 1460 1462 1465 1468 1471 1474 1475 1478 1480 1482 1483 1485
1466 1466 1466 1465 1464 1464 1463 1462 1462 1461 1461 1460 1460 1459 1458 1458 1457 1456 1456 1455 1454 1453 1452 1452 1452 1452 1453 1456 1459 1461 1464 1466 1469 1471 1474 1476 1478 1479